Location: Liré
(47.3432°N, 1.1654°W)
Time: 22:55:02
(UTC+00:00)

Daily predictions for brighter satellites

Satellite Brightness Start Highest point End
(mag) Time Altitude Azimuth Time Altitude Azimuth Time Altitude Azimuth
Meteor 2-10 4.5 17:57:15 10° SSE 18:02:36 46° E 18:07:48 10° NNE
ARGOS 4.0 17:58:05 10° S 18:03:20 58° W 18:08:40 10° NNW
YAOGAN 1 3.3 18:02:50 10° SE 18:06:39 31° ENE 18:10:29 10° N
Okean O Rocket 2.5 18:06:46 10° SE 18:10:31 29° ENE 18:14:20 10° N
Cosmos 2084 4.1 18:07:38 10° WSW 18:11:22 50° NW 18:15:06 10° NNE
SKYMED 2 3.5 18:10:03 10° NNE 18:14:24 71° ESE 18:18:45 10° S
Nadezhda 4 Rocket 4.4 18:09:15 10° SSE 18:15:06 41° E 18:20:55 10° NNE
Cosmos 2227 Rocket 4.5 18:11:33 10° NW 18:16:22 29° WSW 18:21:10 10° SSW
Cosmos 2285 Rocket 4.2 18:15:09 10° NNW 18:21:23 53° ENE 18:27:36 10° SE
PSLV R/B 3.5 18:19:02 10° SSE 18:22:41 75° ENE 18:26:22 10° N
Cosmos 1726 2.2 18:19:40 10° S 18:23:13 51° E 18:26:47 10° NNE
Cosmos 2322 Rocket 3.4 18:19:14 10° SSE 18:23:21 21° E 18:27:29 10° NE
USA 186 3.9 18:22:41 11° E 18:23:42 12° ENE 18:25:07 10° NE
Cosmos 1470 4.0 18:25:16 10° SE 18:28:03 19° E 18:30:51 10° NE
Cosmos 841 Rocket 3.8 18:22:56 10° NNW 18:28:06 71° WSW 18:33:12 10° SSE
CZ-4B R/B 3.2 18:23:39 10° SSE 18:28:57 64° ENE 18:34:24 10° N
Cosmos 1980 Rocket 2.4 18:23:22 10° SSW 18:29:00 76° WNW 18:34:39 10° NNE
Cosmos 1378 Rocket 3.5 18:25:10 10° N 18:29:33 73° E 18:33:52 10° SSE
Cosmos 1975 Rocket 4.4 18:27:11 10° NNE 18:30:28 20° ENE 18:33:08 13° ESE
Timation 2 Rocket 4.1 18:24:39 10° NNW 18:31:08 82° WSW 18:37:16 10° SSE
ARGOS Delta rocket 4.0 18:26:29 10° NNE 18:31:41 60° E 18:36:34 10° S
DMSP B5D2-2 4.2 18:27:10 10° NNE 18:32:29 82° WNW 18:37:44 10° SSW
Cosmos 2292 Rocket 4.2 18:33:24 10° SSE 18:38:03 35° E 18:41:42 10° NNE
Meteor 2-14 Rocket 4.4 18:33:50 10° S 18:39:52 77° E 18:45:57 10° NNE
Cosmos 1733 Rocket 3.7 18:37:47 10° SSW 18:42:10 60° WNW 18:46:36 10° N
Cosmos 1850 Rocket 4.4 18:37:19 10° SSW 18:42:31 67° WNW 18:47:47 10° NNE
USA 215 3.5 18:38:39 10° NE 18:45:10 73° NNW 18:51:41 10° WSW
COBE Rocket 3.8 18:42:17 10° SSE 18:47:08 89° ENE 18:51:53 10° NNW
Cosmos 2221 Rocket 4.4 18:43:06 10° NNW 18:47:33 55° W 18:51:59 10° S
Cosmos 1844 Rocket 3.4 18:44:12 10° NNW 18:49:27 36° NE 18:52:59 18° ESE
Cosmos 2278 3.7 18:46:42 10° SSW 18:52:24 88° WNW 18:58:07 10° NNE
SL-16 R/B 2.4 18:47:51 10° S 18:53:16 48° ESE 18:58:42 10° NE
Cosmos 1570 Rocket 3.9 18:49:45 10° NNW 18:55:01 72° ENE 19:00:14 10° SSE
Landsat 5 4.4 18:52:14 10° NE 18:56:08 28° E 18:59:57 10° SSE
Cosmos 1092 Rocket 4.2 18:50:34 10° SSE 18:56:33 47° E 19:02:30 10° NNE
Resurs 01 Rocket 3.5 19:01:19 14° NE 19:01:19 14° NE 19:03:22 10° NNE
DMSP B5D1-3 4.4 18:56:32 10° NNE 19:01:39 68° ESE 19:06:44 10° S
COSMO-SKYMED 1 4.1 18:58:19 10° N 19:02:21 38° WNW 19:06:23 10° SW
Meteor 2-21 Rocket 4.3 18:56:32 10° S 19:02:35 81° E 19:08:39 10° NNE
SJ-6B 3.4 19:02:07 28° E 19:03:00 32° ENE 19:06:26 10° N
Cosmos 2278 Rocket 4.3 19:01:57 10° NNE 19:03:40 11° NNE 19:05:24 10° NE
HJ-1C 3.6 19:01:08 10° S 19:04:14 65° W 19:07:20 10° NNW
Cosmos 1437 Rocket 2.5 19:01:48 10° S 19:05:31 73° E 19:09:15 10° NNE
H-2A R/B 4.2 19:07:11 15° NE 19:07:11 15° NE 19:08:44 10° NNE
Cosmos 2263 Rocket 3.4 19:03:17 10° NW 19:08:39 43° WSW 19:13:59 10° S
Meteor 1-24 Rocket 3.5 19:05:19 10° N 19:10:36 64° ENE 19:15:57 10° SSE
Resurs 1-3 4.3 19:11:26 30° E 19:12:11 32° ENE 19:16:05 10° N
SL-4 R/B 2.9 19:10:53 10° WNW 19:15:12 49° SW 19:17:52 22° SSE
Meteor 2-16 Rocket 4.4 19:10:24 10° S 19:16:33 87° E 19:22:44 10° N
Feng Yun 1-1 Rocket 4.2 19:11:25 10° SSE 19:16:55 86° WSW 19:22:21 10° NNW
Cosmos 2084 Rocket 3.1 19:14:48 10° NW 19:18:39 74° NE 19:19:51 42° ESE
USA 267 3.9 19:14:33 10° SSE 19:20:53 50° SW 19:27:14 10° WNW
Okean-O 2.8 19:20:29 36° ESE 19:21:48 48° ENE 19:26:04 10° N
ISS -1.0 19:20:17 10° WSW 19:22:06 14° SW 19:23:54 10° SSW
Cosmos 1486 Rocket 4.4 19:17:51 10° S 19:22:48 41° ESE 19:27:47 10° NE
CZ-4 R/B 2.0 19:18:57 10° S 19:23:04 61° W 19:27:14 10° NNW
Cosmos 2208 Rocket 4.1 19:18:16 10° NNW 19:23:42 85° WSW 19:28:16 15° SSE
OBJECT-B 1.8 19:24:56 27° N 19:24:56 27° N 19:26:15 10° N
Cosmos 1844 3.8 19:18:39 10° NNW 19:24:07 52° ENE 19:26:12 34° ESE
IGS 5A 3.5 19:24:38 42° ESE 19:25:39 56° ENE 19:29:44 10° N
DNEPR-1 R/B 4.0 19:22:13 10° SSW 19:26:42 52° ESE 19:30:36 18° NE
Meteor 1-22 Rocket 4.1 19:22:28 10° S 19:27:53 83° E 19:33:34 10° NNE
Helios 1B 4.4 19:25:45 10° NNE 19:30:07 85° ESE 19:34:26 10° SSW
Cosmos 1300 Rocket 3.6 19:30:14 48° E 19:30:22 49° E 19:34:35 10° NNE
Cosmos 1908 Rocket 4.4 19:26:22 10° SSW 19:30:35 52° WNW 19:34:50 10° N
CSL-04 Debris 4.0 19:28:02 19° SSE 19:31:56 77° ENE 19:37:20 10° NNW
Cosmos 1428 Rocket 4.4 19:25:54 10° S 19:32:05 84° E 19:38:22 10° N
Cosmos 1627 Rocket 4.3 19:29:27 10° S 19:35:34 81° E 19:41:43 10° N
Cosmos 2195 Rocket 4.5 19:29:36 10° S 19:35:50 87° WNW 19:42:11 10° N
Cosmos 2360 Rocket 2.3 19:32:21 10° S 19:37:47 51° ESE 19:43:14 10° NE
Cosmos 1782 Rocket 3.6 19:34:23 10° SSW 19:38:43 79° W 19:43:07 10° N
USA 81 3.9 19:34:01 10° N 19:39:20 85° E 19:43:22 18° S
Cosmos 1025 Rocket 2.9 19:39:01 10° N 19:43:21 85° W 19:44:51 41° S
Okean O Rocket 3.4 19:42:54 10° SSW 19:46:48 32° W 19:50:45 10° NNW
Cosmos 968 Rocket 4.2 19:43:51 10° SW 19:48:58 53° WNW 19:54:07 10° NNE
Lacrosse 4 Rocket 1.2 19:46:02 10° SSW 19:50:06 90° WNW 19:50:17 82° NNE
Cosmos 2026 Rocket 4.0 19:46:05 10° SSW 19:52:08 79° W 19:58:14 10° N
USA 186 2.8 19:55:51 48° W 19:55:51 48° W 19:58:51 10° NNW
CSL-04 Rocket 3.7 19:55:05 29° S 19:57:53 75° WSW 20:03:20 10° NNW
ATLAS 2AS CENTAUR R/B 4.3 19:52:46 10° NW 19:58:31 24° NNE 20:01:35 18° NE
BREEZE-M R/B 4.4 19:56:54 10° WSW 19:58:03 31° WSW 19:58:03 31° WSW
MOS 1 4.4 20:01:33 53° ENE 20:01:34 53° ENE 20:07:05 10° N
Cosmos 1470 4.4 20:00:15 10° SW 20:03:45 33° WNW 20:07:17 10° N
Cosmos 1553 Rocket 3.9 19:57:42 10° N 20:04:07 84° E 20:06:34 41° SSE
Landsat 7 3.7 20:04:06 79° S 20:04:22 87° WSW 20:09:08 10° NNW
deb Chang Zheng 4 4.3 20:05:56 42° N 20:05:56 42° N 20:08:46 10° N
Cosmos 2322 Rocket 2.5 20:01:08 10° SW 20:06:49 69° WNW 20:12:33 10° NNE
SPOT 1/Viking Rocket 3.9 20:07:54 51° NE 20:07:54 51° NE 20:12:11 10° N
Cosmos 1975 Rocket 4.1 20:04:22 10° NNW 20:08:34 44° W 20:10:19 29° SW
NOSS 3-4 (A) 4.1 20:04:17 10° NW 20:10:51 49° NE 20:12:04 45° ENE
NOSS 3-4 (C) 4.2 20:04:24 10° NW 20:10:57 49° NE 20:12:10 45° ENE
Ariane Rocket 4.1 20:16:25 32° NNE 20:16:25 32° NNE 20:19:34 10° N
NOSS 3-3 (A) 3.7 20:14:53 10° SSW 20:20:03 74° S 20:20:03 74° S
NOSS 3-3 (C) 3.7 20:15:00 10° SSW 20:19:58 70° S 20:19:58 70° S
Aureole 1 Rocket 3.9 20:17:24 10° SSW 20:24:51 81° ESE 20:30:44 10° NNE
USA 281 4.2 20:27:40 31° NE 20:27:40 31° NE 20:32:57 10° N
USA 215 4.2 20:24:15 24° NE 20:27:41 41° N 20:33:43 10° WNW
Cosmos 1844 Rocket 3.6 20:28:06 10° NW 20:33:25 43° WSW 20:34:40 37° SW
Resurs 01 Rocket 3.1 20:38:53 33° NNW 20:38:53 33° NNW 20:41:22 10° NNW
SL-16 R/B 3.8 20:32:30 10° WSW 20:37:34 33° NW 20:42:40 10° NNE
Cosmos 2315 Rocket 4.5 20:33:04 10° N 20:37:56 49° NNE 20:37:56 49° NNE
Terra 4.2 20:42:43 13° NNE 20:42:43 13° NNE 20:43:23 10° N
Cosmos 1943 Rocket 4.3 20:36:50 10° N 20:38:59 15° NNE 20:38:59 15° NNE
Cosmos 2278 Rocket 3.5 20:44:03 10° NNW 20:47:32 32° NNE 20:47:32 32° NNE
Cosmos 2360 Rocket 3.8 21:17:02 10° WSW 21:22:02 31° NW 21:27:02 10° NNE
ATLAS 2AS CENTAUR R/B 3.8 21:44:15 10° NW 21:49:00 38° N 21:49:00 38° N
